| time (UTC) | temp C | wind direction | speed KPH | gust KPH | rain 1hr cm | rain 24hr cm | rain mn cm | humidity % | barometer mb |
| 20260505031810 | 8 | 93 | 9.7 | 25.7 | 0.00 | 0.00 | 0.00 | 95 | 1009.8 |
| 20260505031313 | 8 | 52 | 8.0 | 25.7 | 0.00 | 0.00 | 0.00 | 95 | 1009.9 |
| 20260505030810 | 8 | 31 | 8.0 | 22.5 | 0.00 | 0.00 | 0.00 | 95 | 1009.8 |
| 20260505030310 | 9 | 40 | 8.0 | 22.5 | 0.00 | 0.00 | 0.00 | 95 | 1010.0 |
| 20260505025810 | 9 | 24 | 8.0 | 22.5 | 0.00 | 0.00 | 0.00 | 95 | 1009.8 |
| 20260505025310 | 9 | 47 | 9.7 | 25.7 | 0.00 | 0.00 | 0.00 | 94 | 1009.9 |
| 20260505024810 | 9 | 39 | 8.0 | 27.4 | 0.00 | 0.00 | 0.00 | 94 | 1009.9 |
| 20260505024310 | 9 | 59 | 11.3 | 25.7 | 0.00 | 0.00 | 0.00 | 94 | 1009.7 |
| 20260505023810 | 9 | 20 | 11.3 | 29.0 | 0.00 | 0.00 | 0.00 | 94 | 1009.6 |
| 20260505023309 | 9 | 55 | 9.7 | 33.8 | 0.00 | 0.00 | 0.00 | 94 | 1009.8 |
| 20260505022810 | 9 | 44 | 8.0 | 24.1 | 0.00 | 0.00 | 0.00 | 94 | 1009.7 |
| 20260505022209 | 9 | 27 | 11.3 | 29.0 | 0.00 | 0.00 | 0.00 | 94 | 1009.8 |
| 20260505021709 | 9 | 27 | 12.9 | 30.6 | 0.00 | 0.00 | 0.00 | 94 | 1009.8 |
| 20260505021210 | 9 | 34 | 11.3 | 27.4 | 0.00 | 0.00 | 0.00 | 94 | 1009.7 |
| 20260505020709 | 9 | 52 | 12.9 | 27.4 | 0.00 | 0.00 | 0.00 | 94 | 1009.7 |
| 20260505020210 | 9 | 37 | 9.7 | 27.4 | 0.00 | 0.00 | 0.00 | 93 | 1009.6 |
| 20260505015709 | 9 | 28 | 12.9 | 29.0 | 0.00 | 0.00 | 0.00 | 93 | 1007.9 |
| 20260505015210 | 9 | 52 | 11.3 | 25.7 | 0.00 | 0.00 | 0.00 | 93 | 1009.6 |
| 20260505014709 | 9 | 44 | 9.7 | 32.2 | 0.00 | 0.00 | 0.00 | 93 | 1009.6 |
| 20260505014209 | 9 | 60 | 11.3 | 37.0 | 0.00 | 0.00 | 0.00 | 93 | 1009.6 |
| 20260505013709 | 9 | 47 | 11.3 | 32.2 | 0.00 | 0.00 | 0.00 | 93 | 1009.4 |
| 20260505013209 | 9 | 53 | 11.3 | 38.6 | 0.00 | 0.00 | 0.00 | 92 | 1009.3 |
| 20260505012709 | 9 | 29 | 12.9 | 38.6 | 0.00 | 0.00 | 0.00 | 92 | 1009.2 |
| 20260505012209 | 9 | 22 | 14.5 | 45.1 | 0.00 | 0.00 | 0.00 | 92 | 1009.1 |
| 20260505011709 | 9 | 55 | 14.5 | 35.4 | 0.00 | 0.00 | 0.00 | 92 | 1008.9 |
| 20260505011209 | 9 | 20 | 14.5 | 45.1 | 0.00 | 0.00 | 0.00 | 92 | 1009.0 |
| 20260505010709 | 9 | 43 | 16.1 | 43.5 | 0.00 | 0.00 | 0.00 | 91 | 1008.7 |
| 20260505010209 | 9 | 50 | 14.5 | 46.7 | 0.00 | 0.00 | 0.00 | 91 | 1008.8 |
| 20260505005709 | 9 | 54 | 12.9 | 35.4 | 0.00 | 0.00 | 0.00 | 91 | 1008.6 |
| 20260505005209 | 9 | 31 | 14.5 | 37.0 | 0.00 | 0.00 | 0.00 | 91 | 1007.0 |
| 20260505004709 | 9 | 205 | 16.1 | 46.7 | 0.00 | 0.00 | 0.00 | 91 | 1008.5 |
| 20260505004209 | 9 | 80 | 14.5 | 45.1 | 0.00 | 0.00 | 0.00 | 91 | 1008.6 |
| 20260505003709 | 9 | 39 | 14.5 | 40.2 | 0.00 | 0.00 | 0.00 | 91 | 1008.4 |
| 20260505003209 | 9 | 105 | 0.0 | 40.2 | 0.00 | 0.00 | 0.00 | 90 | 1008.3 |
| 20260505002709 | 9 | 245 | 0.0 | 38.6 | 0.00 | 0.00 | 0.00 | 90 | 1008.2 |
| 20260505002209 | 9 | 42 | 14.5 | 45.1 | 0.00 | 0.00 | 0.00 | 90 | 1008.2 |
| 20260505001709 | 9 | 232 | 0.0 | 46.7 | 0.00 | 0.00 | 0.00 | 90 | 1008.1 |
| 20260505001109 | 9 | 256 | 19.3 | 41.8 | 0.00 | 0.00 | 0.00 | 89 | 1008.1 |
| 20260505000609 | 10 | 111 | 14.5 | 43.5 | 0.00 | 0.00 | 0.00 | 89 | 1008.0 |
| 20260505000109 | 10 | 30 | 0.0 | 45.1 | 0.00 | 0.00 | 0.00 | 89 | 1008.0 |
| 20260504235609 | 10 | 36 | 0.0 | 45.1 | 0.00 | 0.00 | 0.00 | 89 | 1007.9 |
| 20260504235109 | 10 | 59 | 14.5 | 45.1 | 0.00 | 0.00 | 0.00 | 88 | 1007.8 |
| 20260504234609 | 10 | 118 | 17.7 | 43.5 | 0.00 | 0.00 | 0.00 | 88 | 1007.5 |
| 20260504234109 | 10 | 53 | 14.5 | 43.5 | 0.00 | 0.00 | 0.00 | 88 | 1007.6 |
| 20260504233609 | 10 | 136 | 0.0 | 51.5 | 0.00 | 0.00 | 0.00 | 87 | 1007.6 |
| 20260504233109 | 10 | 255 | 0.0 | 48.3 | 0.00 | 0.00 | 0.00 | 87 | 1007.6 |
| 20260504232609 | 10 | 205 | 17.7 | 45.1 | 0.00 | 0.00 | 0.00 | 86 | 1007.9 |
| 20260504232109 | 10 | 130 | 0.0 | 43.5 | 0.00 | 0.00 | 0.00 | 86 | 1007.4 |
| 20260504231609 | 10 | 193 | 0.0 | 41.8 | 0.00 | 0.00 | 0.00 | 85 | 1007.8 |
| 20260504231109 | 10 | 313 | 16.1 | 46.7 | 0.00 | 0.00 | 0.00 | 85 | 1007.7 |
| 20260504230609 | 10 | 279 | 0.0 | 38.6 | 0.00 | 0.00 | 0.00 | 85 | 1007.8 |
| 20260504230109 | 10 | 217 | 17.7 | 43.5 | 0.00 | 0.00 | 0.00 | 85 | 1007.8 |
| 20260504225609 | 10 | 241 | 17.7 | 43.5 | 0.00 | 0.00 | 0.00 | 85 | 1007.7 |
| 20260504225109 | 10 | 36 | 16.1 | 41.8 | 0.00 | 0.00 | 0.00 | 84 | 1007.7 |
| 20260504224609 | 10 | 2 | 16.1 | 43.5 | 0.00 | 0.00 | 0.00 | 84 | 1007.9 |
| 20260504224109 | 10 | 106 | 14.5 | 35.4 | 0.00 | 0.00 | 0.00 | 85 | 1007.9 |
| 20260504223609 | 10 | 191 | 0.0 | 40.2 | 0.00 | 0.00 | 0.00 | 84 | 1007.6 |
| 20260504223109 | 10 | 327 | 14.5 | 40.2 | 0.00 | 0.00 | 0.00 | 83 | 1007.8 |
| 20260504222609 | 11 | 47 | 12.9 | 41.8 | 0.00 | 0.00 | 0.00 | 83 | 1007.8 |
| 20260504222109 | 11 | 60 | 0.0 | 45.1 | 0.00 | 0.00 | 0.00 | 83 | 1007.8 |
| 20260504221609 | 11 | 22 | 12.9 | 43.5 | 0.00 | 0.00 | 0.00 | 83 | 1007.9 |
| 20260504221109 | 11 | 22 | 0.0 | 41.8 | 0.00 | 0.00 | 0.00 | 83 | 1008.0 |
| 20260504220609 | 11 | 9 | 14.5 | 38.6 | 0.00 | 0.00 | 0.00 | 82 | 1008.0 |
| 20260504220108 | 11 | 46 | 14.5 | 40.2 | 0.00 | 0.00 | 0.00 | 82 | 1007.9 |
| 20260504215609 | 11 | 53 | 14.5 | 37.0 | 0.00 | 0.00 | 0.00 | 82 | 1007.9 |
| 20260504215109 | 11 | 36 | 12.9 | 37.0 | 0.00 | 0.00 | 0.00 | 82 | 1008.0 |
| 20260504214609 | 11 | 33 | 14.5 | 43.5 | 0.00 | 0.00 | 0.00 | 81 | 1007.7 |
| 20260504214109 | 11 | 42 | 14.5 | 38.6 | 0.00 | 0.00 | 0.00 | 81 | 1007.8 |
| 20260504213609 | 11 | 38 | 12.9 | 41.8 | 0.00 | 0.00 | 0.00 | 81 | 1007.8 |
| 20260504213109 | 11 | 15 | 11.3 | 40.2 | 0.00 | 0.00 | 0.00 | 81 | 1007.9 |
| 20260504212608 | 11 | 21 | 16.1 | 37.0 | 0.00 | 0.00 | 0.00 | 81 | 1008.1 |
| 20260504212108 | 11 | 318 | 16.1 | 43.5 | 0.00 | 0.00 | 0.00 | 81 | 1008.0 |
| 20260504211609 | 11 | 11 | 12.9 | 48.3 | 0.00 | 0.00 | 0.00 | 81 | 1008.1 |
| 20260504211109 | 11 | 47 | 0.0 | 40.2 | 0.00 | 0.00 | 0.00 | 81 | 1008.0 |
| 20260504210608 | 11 | 242 | 14.5 | 40.2 | 0.00 | 0.00 | 0.00 | 81 | 1008.0 |
| 20260504210108 | 11 | 35 | 12.9 | 30.6 | 0.00 | 0.00 | 0.00 | 80 | 1008.0 |
| 20260504205608 | 11 | 23 | 11.3 | 38.6 | 0.00 | 0.00 | 0.00 | 80 | 1008.1 |
| 20260504205108 | 12 | 41 | 12.9 | 27.4 | 0.00 | 0.00 | 0.00 | 80 | 1008.1 |
| 20260504204609 | 12 | 48 | 9.7 | 27.4 | 0.00 | 0.00 | 0.00 | 79 | 1008.2 |
| 20260504204109 | 12 | 34 | 9.7 | 30.6 | 0.00 | 0.00 | 0.00 | 78 | 1008.1 |
| 20260504203608 | 12 | 41 | 11.3 | 30.6 | 0.00 | 0.00 | 0.00 | 78 | 1008.1 |
| 20260504203109 | 12 | 87 | 11.3 | 29.0 | 0.00 | 0.00 | 0.00 | 78 | 1008.2 |
| 20260504202608 | 12 | 18 | 11.3 | 27.4 | 0.00 | 0.00 | 0.00 | 77 | 1008.2 |
| 20260504202108 | 12 | 45 | 11.3 | 29.0 | 0.00 | 0.00 | 0.00 | 78 | 1008.1 |
| 20260504201609 | 12 | 51 | 11.3 | 27.4 | 0.00 | 0.00 | 0.00 | 78 | 1008.1 |
| 20260504201108 | 12 | 123 | 14.5 | 32.2 | 0.00 | 0.00 | 0.00 | 78 | 1008.2 |
| 20260504200608 | 12 | 56 | 9.7 | 27.4 | 0.00 | 0.00 | 0.00 | 78 | 1008.2 |
| 20260504200108 | 12 | 58 | 11.3 | 27.4 | 0.00 | 0.00 | 0.00 | 78 | 1008.3 |
| 20260504195608 | 12 | 79 | 11.3 | 30.6 | 0.00 | 0.00 | 0.00 | 79 | 1008.2 |
| 20260504195108 | 12 | 29 | 11.3 | 33.8 | 0.00 | 0.00 | 0.00 | 78 | 1008.1 |
| 20260504194608 | 12 | 50 | 12.9 | 30.6 | 0.00 | 0.00 | 0.00 | 79 | 1008.3 |
| 20260504194108 | 12 | 30 | 11.3 | 37.0 | 0.00 | 0.00 | 0.00 | 78 | 1006.7 |
| 20260504193608 | 12 | 49 | 9.7 | 20.9 | 0.00 | 0.00 | 0.00 | 78 | 1008.4 |
| 20260504193109 | 12 | 64 | 11.3 | 32.2 | 0.00 | 0.00 | 0.00 | 78 | 1008.3 |
| 20260504192609 | 12 | 25 | 11.3 | 32.2 | 0.00 | 0.00 | 0.00 | 77 | 1008.3 |
| 20260504192108 | 12 | 51 | 9.7 | 29.0 | 0.00 | 0.00 | 0.00 | 77 | 1008.5 |
| 20260504191608 | 12 | 49 | 9.7 | 30.6 | 0.00 | 0.00 | 0.00 | 77 | 1008.6 |
| 20260504191108 | 12 | 62 | 9.7 | 29.0 | 0.00 | 0.00 | 0.00 | 78 | 1008.6 |
| 20260504190608 | 12 | 55 | 11.3 | 24.1 | 0.00 | 0.00 | 0.00 | 77 | 1008.6 |
| 20260504190108 | 12 | 67 | 12.9 | 35.4 | 0.00 | 0.00 | 0.00 | 78 | 1008.6 |
| 20260504185608 | 12 | 61 | 12.9 | 33.8 | 0.00 | 0.00 | 0.00 | 78 | 1008.4 |
| 20260504185109 | 12 | 56 | 11.3 | 29.0 | 0.00 | 0.00 | 0.00 | 78 | 1008.6 |
| 20260504184608 | 12 | 54 | 11.3 | 27.4 | 0.00 | 0.00 | 0.00 | 79 | 1008.6 |
| 20260504184108 | 12 | 55 | 11.3 | 27.4 | 0.00 | 0.00 | 0.00 | 79 | 1008.5 |
| 20260504183608 | 12 | 52 | 12.9 | 27.4 | 0.00 | 0.00 | 0.00 | 80 | 1008.8 |
| 20260504183116 | 12 | 72 | 9.7 | 33.8 | 0.00 | 0.00 | 0.00 | 80 | 1008.6 |
| 20260504182608 | 12 | 47 | 9.7 | 25.7 | 0.00 | 0.00 | 0.00 | 80 | 1008.9 |
| 20260504182108 | 12 | 45 | 14.5 | 30.6 | 0.00 | 0.00 | 0.00 | 79 | 1008.8 |
| 20260504181608 | 12 | 39 | 11.3 | 29.0 | 0.00 | 0.00 | 0.00 | 80 | 1008.8 |
| 20260504181108 | 12 | 46 | 12.9 | 30.6 | 0.00 | 0.00 | 0.00 | 81 | 1008.9 |
| 20260504180608 | 12 | 60 | 11.3 | 27.4 | 0.00 | 0.00 | 0.00 | 82 | 1008.7 |
| 20260504180108 | 12 | 40 | 12.9 | 30.6 | 0.00 | 0.00 | 0.00 | 81 | 1008.8 |
| 20260504175608 | 12 | 56 | 12.9 | 33.8 | 0.00 | 0.00 | 0.00 | 82 | 1008.8 |
| 20260504175108 | 12 | 46 | 12.9 | 27.4 | 0.00 | 0.00 | 0.00 | 81 | 1009.0 |
| 20260504174608 | 12 | 32 | 12.9 | 32.2 | 0.00 | 0.00 | 0.00 | 81 | 1009.0 |
| 20260504174108 | 12 | 51 | 11.3 | 30.6 | 0.00 | 0.00 | 0.00 | 81 | 1009.0 |
| 20260504173608 | 12 | 64 | 11.3 | 27.4 | 0.00 | 0.00 | 0.00 | 82 | 1009.1 |
| 20260504173108 | 12 | 59 | 12.9 | 27.4 | 0.00 | 0.00 | 0.00 | 82 | 1009.0 |
| 20260504172611 | 12 | 59 | 12.9 | 30.6 | 0.00 | 0.00 | 0.00 | 81 | 1009.3 |
| 20260504172108 | 12 | 12 | 11.3 | 27.4 | 0.00 | 0.00 | 0.00 | 81 | 1009.2 |
| 20260504171608 | 12 | 39 | 9.7 | 35.4 | 0.00 | 0.00 | 0.00 | 81 | 1009.1 |
| 20260504171108 | 12 | 14 | 14.5 | 41.8 | 0.00 | 0.00 | 0.00 | 82 | 1009.3 |
| 20260504170608 | 12 | 310 | 12.9 | 38.6 | 0.00 | 0.00 | 0.00 | 81 | 1009.3 |
| 20260504170108 | 12 | 256 | 17.7 | 40.2 | 0.00 | 0.00 | 0.00 | 82 | 1009.3 |
| 20260504160107 | 12 | 31 | 12.9 | 35.4 | 0.00 | 0.00 | 0.00 | 80 | 1009.6 |
| 20260504151107 | 12 | 262 | 19.3 | 43.5 | 0.00 | 0.00 | 0.00 | 79 | 1008.4 |
| 20260504150607 | 12 | 285 | 16.1 | 38.6 | 0.00 | 0.00 | 0.00 | 81 | 1009.9 |
| 20260504150107 | 12 | 283 | 0.0 | 41.8 | 0.00 | 0.00 | 0.00 | 81 | 1009.9 |
| 20260504141107 | 11 | 263 | 19.3 | 38.6 | 0.00 | 0.00 | 0.00 | 80 | 1010.2 |
| 20260504140607 | 11 | 268 | 19.3 | 40.2 | 0.00 | 0.00 | 0.00 | 80 | 1010.0 |
| 20260504140107 | 11 | 267 | 17.7 | 43.5 | 0.00 | 0.00 | 0.00 | 81 | 1010.2 |
| 20260504130607 | 11 | 259 | 25.7 | 45.1 | 0.00 | 0.00 | 0.00 | 80 | 1010.5 |
| 20260504130107 | 11 | 260 | 27.4 | 41.8 | 0.00 | 0.00 | 0.00 | 80 | 1010.6 |
| 20260504120107 | 9 | 257 | 19.3 | 37.0 | 0.00 | 0.00 | 0.00 | 86 | 1010.7 |
| 20260504110507 | 9 | 257 | 22.5 | 35.4 | 0.00 | 0.00 | 0.00 | 86 | 1010.5 |
| 20260504100506 | 8 | 263 | 17.7 | 33.8 | 0.00 | 0.00 | 0.00 | 88 | 1010.1 |
| 20260504082006 | 8 | 263 | 17.7 | 29.0 | 0.00 | 0.00 | 0.00 | 89 | 1009.6 |
| 20260504081506 | 8 | 264 | 17.7 | 29.0 | 0.00 | 0.00 | 0.00 | 88 | 1007.9 |
| 20260504081006 | 8 | 260 | 20.9 | 32.2 | 0.00 | 0.00 | 0.00 | 88 | 1009.5 |
| 20260504080506 | 8 | 260 | 19.3 | 29.0 | 0.00 | 0.00 | 0.00 | 87 | 1009.6 |
| 20260504050509 | 8 | 253 | 17.7 | 25.7 | 0.00 | 0.00 | 0.00 | 90 | 1009.0 |
| 20260504050008 | 8 | 256 | 17.7 | 25.7 | 0.00 | 0.00 | 0.00 | 89 | 1009.0 |
| 20260504045514 | 8 | 257 | 14.5 | 24.1 | 0.00 | 0.00 | 0.00 | 89 | 1009.0 |
| 20260504045008 | 8 | 260 | 16.1 | 24.1 | 0.00 | 0.00 | 0.00 | 89 | 1009.1 |
| 20260504044507 | 8 | 255 | 14.5 | 27.4 | 0.00 | 0.00 | 0.00 | 89 | 1009.1 |
| 20260504044008 | 8 | 274 | 11.3 | 24.1 | 0.00 | 0.00 | 0.00 | 88 | 1009.1 |
| 20260504043508 | 8 | 256 | 14.5 | 29.0 | 0.00 | 0.00 | 0.00 | 87 | 1009.1 |
| 20260504043007 | 8 | 264 | 16.1 | 30.6 | 0.00 | 0.00 | 0.00 | 87 | 1009.1 |
| 20260504042514 | 8 | 255 | 17.7 | 29.0 | 0.00 | 0.00 | 0.00 | 87 | 1009.1 |
| 20260504042014 | 8 | 264 | 22.5 | 27.4 | 0.00 | 0.00 | 0.00 | 88 | 1007.5 |
| 20260504041508 | 8 | 266 | 19.3 | 25.7 | 0.00 | 0.00 | 0.00 | 88 | 1009.1 |
| 20260504041009 | 8 | 268 | 17.7 | 24.1 | 0.00 | 0.00 | 0.00 | 88 | 1009.2 |
| 20260504040510 | 8 | 260 | 17.7 | 24.1 | 0.00 | 0.00 | 0.00 | 89 | 1009.2 |
| 20260504040005 | 8 | 260 | 16.1 | 22.5 | 0.00 | 0.00 | 0.00 | 89 | 1009.1 |
| 20260504035507 | 7 | 258 | 14.5 | 20.9 | 0.00 | 0.00 | 0.00 | 89 | 1009.1 |
| 20260504035014 | 7 | 246 | 12.9 | 20.9 | 0.00 | 0.00 | 0.00 | 90 | 1009.1 |
| 20260504034506 | 7 | 259 | 12.9 | 20.9 | 0.00 | 0.00 | 0.00 | 89 | 1009.1 |
| 20260504034005 | 7 | 258 | 12.9 | 22.5 | 0.00 | 0.00 | 0.00 | 89 | 1009.0 |
| 20260504033507 | 7 | 271 | 11.3 | 24.1 | 0.00 | 0.00 | 0.00 | 89 | 1009.0 |
| 20260504033006 | 8 | 270 | 11.3 | 27.4 | 0.00 | 0.00 | 0.00 | 89 | 1008.9 |
| 20260504032505 | 8 | 248 | 12.9 | 29.0 | 0.00 | 0.00 | 0.00 | 89 | 1008.9 |
| 20260504032005 | 8 | 242 | 16.1 | 32.2 | 0.00 | 0.00 | 0.00 | 88 | 1008.8 |